STARLINK-6074, 56553

Orbit data source: Space-Track

STARLINK-6074, 56553 is a payload satellite owned by SpaceX/Seattle (US) in LEO that was launched on Sun, 14 May 2023 UTC via an FALCON 9 launch vehicle from the Air Force Eastern Test Range (AFETR). Payload-class satellites include a variety of spacecraft equipped with specific instruments for various scientific and technological missions. These include communications satellites like Starlink; space stations such as the ISS; scientific satellites like the Hubble; Earth observation satellites from companies like Planet Labs, Umbra, and HawkEye 360; GPS; miniature CubeSats for education and research; and military/defense satellites.

Loading next visibility...
Identifier
56553, 2023-065BC
Orbit
LEO
Country
Flag of USUS
Related business
Manufacturer
SpaceX/Seattle
Mission
Operational Commercial Communications
Bus & Motor
STARLINK, Unknown motor
Mass
305 kg wet, ~290 kg dry
Launch date (UTC)
2023-05-14 (3 years ago)
Launch vehicle
FALCON 9
Launch site
Air Force Eastern Test Range (AFETR)
Object type
Payload
Rocket body
Debris
Shape & HBR
Box + 1 Pan, 10.1 m
Radar Cross Section
11.087 m², Large (>1 m²)

Expand to show TLE details & history
Last TLE update: 3 days ago

TLE from 3 days ago
0 STARLINK-6074
1 56553U 23065BC  26170.62306096 -.00000278  00000-0 -55828-6 0  9991
2 56553  43.0024   7.7302 0001463 258.0988 101.9699 15.27569239172062
Epoch: 2026-06-19T14:57Z
TLE epoch observation values (Epoch: 2026-06-19T14:57:12.466Z)
Latitude
-0.00008°
Longitude
-124.42121°
Altitude
483.065 km
Speed
7.626 km/s
True Right ascension
00h 30m 55s
True Declination
0° 00' 00"
Sunlit
Object was in daylight at epoch
Visualization orbit readout
Latitude
Unknown
Longitude
Unknown
Altitude
Unknown
Speed
Unknown
Apparent Right ascension
Unknown
Apparent Declination
Unknown
Sunlit
N/A
Visualization observer readout
Local Sidereal Time
21:32:34
Azimuth
Unknown
Elevation
Unknown
Doppler factor
Unknown
Orbital elements
Apogee altitude
486.03 km
Perigee altitude
484.022 km
Semi-major axis
6,863.163 km
Eccentricity
0.00015
Inclination
43.0024°
RAAN
7.7302°
Arg. of periapsis
258.0988°
True anomaly
101.9863°
Mean anomaly
101.9699°
Eccentric anomaly
101.9781°
Mean motion
3.8173 °/min
Orbital period
94.31 mins
BSTAR
-5.5828e-7
Loading maneuver chart data...
Computing Atmospheric mass density...
Loading historical data...
Loading historical data...
Loading historical data...
Loading historical data...
Loading historical data...
Loading historical data...
Loading historical data...

Documentation

Showing up to 5 results
|